SCP
0 0 0 0 0 0 0 0 0 0 0 0 0 0 0 0 0 0 0 0 0 0
0 0 0 0 0 0 0 0 0 0 0 0 0 0 0 0 0 0 0 0 0 0
0 0 0 0 0 0 0 0 0 0 0 0 0 0 0 0 0 0 0 0 0 0
0 0 0 0 0 0 0 0 0 0 0 0 0 0 0 0 0 0 0 0 0 0
0 0 0 0 0 0 0 0 0 0 0 0 0 0 0 0 0 0 0 0 0 0
0 0 0 0 0 0 0 0 0 0 0 0 0 0 0 0 0 0 0 0 0 0
0 0 0 0 0 0 0 0 0 0 0 0 0 0 0 0 0 0 0 0 0 0
0 0 0 0 0 0 0 0 0 0 0 0 0 0 0 0 0 0 0 0 0 0
0 0 0 0 0 0 0 0 0 0 0 0 0 0 0 0 0 0 0 0 0 0
0 0 0 0 0 0 0 0 0 0 0 0 0 0 0 0 0 0 0 0 0 0
-0 0 0 0 0 0 0 0 0 0 0 0 0 0 0 0 0 0 0 0 0 0
-0 -0 -0 0 0 0 0 0 0 0 0 0 0 0 0 0 0 0 0 0 0 0
0 0 0 0 -0 0 0 0 0 0 0 0 0 0 0 0 0 0 0 0 0 0
0 0 0 0 0 0 0 0 0 0 0 0 0 0 0 0 0 0 0 0 0 0
Wind_Speed_500mb
57 67 81 90 94 93 92 97 99 102 105 108 108 110 115 119 118 116 114 110 106 104
30 39 65 80 89 92 95 98 92 94 101 104 106 107 109 118 122 122 123 118 113 111
41 41 44 57 78 89 94 94 94 98 100 106 108 108 108 113 116 121 123 122 117 116
50 50 52 52 57 70 82 92 97 97 100 105 110 108 111 111 112 111 111 111 113 116
53 55 56 56 56 57 66 76 88 94 97 101 108 111 112 110 109 112 113 113 111 117
52 57 58 60 63 63 64 70 77 87 94 99 106 113 115 118 113 116 112 117 118 122
53 57 61 62 62 64 67 73 76 82 90 96 101 107 116 118 113 118 114 102 121 125
58 59 63 64 63 66 66 67 74 78 86 90 97 105 111 116 114 111 117 106 109 123
65 64 67 67 66 65 68 66 65 75 80 89 95 98 103 111 114 117 111 116 105 120
70 72 73 76 76 73 67 67 70 70 76 84 92 96 100 102 105 113 113 114 105 109
82 81 80 81 81 80 77 73 72 76 75 82 88 94 96 93 96 104 113 111 108 107
89 89 87 87 88 87 84 83 80 76 78 77 85 82 86 84 89 97 109 111 110 106
92 92 95 96 97 94 92 87 83 86 83 79 82 79 79 78 85 98 106 103 114 113
97 102 100 101 102 104 100 97 94 90 86 85 76 75 75 75 78 98 100 109 114 119
Wind_Direction_500mb
257 257 260 261 261 258 254 258 262 265 266 264 262 258 254 251 252 251 249 248 247 247
276 271 261 263 264 263 260 256 254 259 260 262 261 260 257 253 252 251 251 250 248 247
285 278 276 269 264 264 265 261 257 254 257 258 258 259 256 254 254 252 250 250 248 247
304 292 285 276 270 267 266 264 262 258 254 258 258 256 253 255 251 248 244 242 244 246
320 310 298 291 283 278 275 270 265 262 259 254 257 259 255 248 245 243 245 241 239 242
334 328 315 302 298 289 282 277 271 263 260 257 254 256 258 258 249 246 249 245 240 244
327 328 325 311 300 297 291 284 276 270 263 259 256 255 258 259 258 247 249 253 245 244
330 324 326 325 309 301 294 289 284 274 269 264 259 256 257 257 257 255 250 255 254 242
332 327 322 324 325 313 305 297 292 282 271 268 265 262 259 260 261 258 255 250 255 246
327 328 328 323 322 324 314 304 297 291 281 269 266 264 262 260 259 260 259 254 252 248
324 322 324 324 324 321 319 310 300 295 288 278 269 266 266 264 262 261 257 254 252 250
319 318 319 319 321 323 318 313 307 297 291 281 276 267 265 266 264 262 257 254 253 253
315 316 317 318 318 319 320 312 308 302 295 287 282 269 262 266 265 264 259 255 252 253
308 310 311 313 315 315 315 315 309 303 297 289 282 274 260 259 263 265 262 258 251 248
Wind_Speed_850mb
57 67 81 90 94 93 92 97 99 102 105 108 108 110 115 119 118 116 114 110 106 104
30 39 65 80 89 92 95 98 92 94 101 104 106 107 109 118 122 122 123 118 113 111
41 41 44 57 78 89 94 94 94 98 100 106 108 108 108 113 116 121 123 122 117 116
50 50 52 52 57 70 82 92 97 97 100 105 110 108 111 111 112 111 111 111 113 116
53 55 56 56 56 57 66 76 88 94 97 101 108 111 112 110 109 112 113 113 111 117
52 57 58 60 63 63 64 70 77 87 94 99 106 113 115 118 113 116 112 117 118 122
53 57 61 62 62 64 67 73 76 82 90 96 101 107 116 118 113 118 114 102 121 125
58 59 63 64 63 66 66 67 74 78 86 90 97 105 111 116 114 111 117 106 109 123
65 64 67 67 66 65 68 66 65 75 80 89 95 98 103 111 114 117 111 116 105 120
70 72 73 76 76 73 67 67 70 70 76 84 92 96 100 102 105 113 113 114 105 109
82 81 80 81 81 80 77 73 72 76 75 82 88 94 96 93 96 104 113 111 108 107
89 89 87 87 88 87 84 83 80 76 78 77 85 82 86 84 89 97 109 111 110 106
92 92 95 96 97 94 92 87 83 86 83 79 82 79 79 78 85 98 106 103 114 113
97 102 100 101 102 104 100 97 94 90 86 85 76 75 75 75 78 98 100 109 114 119
Wind_Direction_850mb
257 257 260 261 261 258 254 258 262 265 266 264 262 258 254 251 252 251 249 248 247 247
276 271 261 263 264 263 260 256 254 259 260 262 261 260 257 253 252 251 251 250 248 247
285 278 276 269 264 264 265 261 257 254 257 258 258 259 256 254 254 252 250 250 248 247
304 292 285 276 270 267 266 264 262 258 254 258 258 256 253 255 251 248 244 242 244 246
320 310 298 291 283 278 275 270 265 262 259 254 257 259 255 248 245 243 245 241 239 242
334 328 315 302 298 289 282 277 271 263 260 257 254 256 258 258 249 246 249 245 240 244
327 328 325 311 300 297 291 284 276 270 263 259 256 255 258 259 258 247 249 253 245 244
330 324 326 325 309 301 294 289 284 274 269 264 259 256 257 257 257 255 250 255 254 242
332 327 322 324 325 313 305 297 292 282 271 268 265 262 259 260 261 258 255 250 255 246
327 328 328 323 322 324 314 304 297 291 281 269 266 264 262 260 259 260 259 254 252 248
324 322 324 324 324 321 319 310 300 295 288 278 269 266 266 264 262 261 257 254 252 250
319 318 319 319 321 323 318 313 307 297 291 281 276 267 265 266 264 262 257 254 253 253
315 316 317 318 318 319 320 312 308 302 295 287 282 269 262 266 265 264 259 255 252 253
308 310 311 313 315 315 315 315 309 303 297 289 282 274 260 259 263 265 262 258 251 248